CJX892 RPLL-ZSPD

Flight info

Callsign CJX892
Flight time N/A
Altitude 33000
Route CAB B462 LAO M646 POTIB Q11 TACLE B591 WAGON Q11 DRAKE L2 BERBA R596 DST B221 PAMVU V74 BK
Aircraft A320/M-SDE3FGHIRWY/LB1D1

Departure

Time N/A
Airport Ninoy Aquino International Airport (RPLL)

Arrival

Time 2026-04-30 14:02
Airport Shanghai Pudong International Airport (ZSPD)
Time Latitude Longitude Altitude Speed Heading
2026-04-30 11:26 15.41712 121.02888 19255 ft 437 kts 356°
2026-04-30 11:26 15.44754 121.02674 19581 ft 439 kts 356°
2026-04-30 11:26 15.47814 121.02447 19912 ft 442 kts 354°
2026-04-30 11:27 15.50859 121.01906 20201 ft 445 kts 349°
2026-04-30 11:27 15.53903 121.01320 20570 ft 446 kts 349°
2026-04-30 11:27 15.56970 121.00768 20913 ft 447 kts 350°
2026-04-30 11:27 15.60048 121.00235 21210 ft 449 kts 350°
2026-04-30 11:28 15.66208 120.99165 21840 ft 453 kts 349°
2026-04-30 11:28 15.69320 120.98613 22170 ft 455 kts 349°
2026-04-30 11:28 15.72445 120.98051 22500 ft 456 kts 349°
2026-04-30 11:29 15.75584 120.97480 22792 ft 458 kts 349°
2026-04-30 11:29 15.78736 120.96901 23090 ft 460 kts 349°
2026-04-30 11:29 15.85071 120.95730 23621 ft 464 kts 349°
2026-04-30 11:30 15.91467 120.94560 24088 ft 468 kts 349°
2026-04-30 11:30 15.94684 120.93977 24320 ft 469 kts 349°
2026-04-30 11:30 15.97864 120.93402 24567 ft 470 kts 349°
2026-04-30 11:31 16.01096 120.92816 24812 ft 471 kts 348°
2026-04-30 11:31 16.04332 120.92228 25071 ft 472 kts 348°
2026-04-30 11:31 16.07575 120.91638 25287 ft 474 kts 348°
2026-04-30 11:31 16.10836 120.91043 25470 ft 475 kts 348°
2026-04-30 11:32 16.14095 120.90446 25662 ft 476 kts 348°
2026-04-30 11:32 16.17365 120.89846 25864 ft 477 kts 348°
2026-04-30 11:32 16.20641 120.89246 26083 ft 479 kts 348°
2026-04-30 11:33 16.27227 120.88045 26455 ft 482 kts 348°
2026-04-30 11:33 16.30499 120.87449 26659 ft 483 kts 348°
2026-04-30 11:33 16.33815 120.86844 26891 ft 484 kts 348°
2026-04-30 11:33 16.37142 120.86234 27101 ft 485 kts 348°
2026-04-30 11:34 16.40471 120.85622 27368 ft 485 kts 348°
2026-04-30 11:34 16.43797 120.85013 27660 ft 485 kts 348°
2026-04-30 11:34 16.47126 120.84407 27979 ft 484 kts 348°
2026-04-30 11:34 16.50441 120.83804 28287 ft 483 kts 348°
2026-04-30 11:35 16.53750 120.83198 28595 ft 483 kts 348°
2026-04-30 11:35 16.57059 120.82589 28914 ft 482 kts 348°
2026-04-30 11:35 16.60353 120.81984 29279 ft 480 kts 348°
2026-04-30 11:35 16.63636 120.81380 29617 ft 478 kts 347°
2026-04-30 11:36 16.66912 120.80772 29938 ft 477 kts 347°
2026-04-30 11:36 16.70144 120.80174 30202 ft 477 kts 347°
2026-04-30 11:36 16.73418 120.79572 30455 ft 477 kts 347°
2026-04-30 11:36 16.76708 120.78968 30729 ft 476 kts 347°
2026-04-30 11:37 16.79977 120.78367 31011 ft 476 kts 347°
2026-04-30 11:37 16.83196 120.77773 31269 ft 475 kts 347°
2026-04-30 11:37 16.86455 120.77175 31482 ft 475 kts 347°
2026-04-30 11:37 16.89710 120.76579 31737 ft 475 kts 347°
2026-04-30 11:38 16.92975 120.75979 32008 ft 475 kts 347°
2026-04-30 11:38 16.96219 120.75384 32236 ft 472 kts 347°
2026-04-30 11:38 16.99461 120.74790 32449 ft 473 kts 347°
2026-04-30 11:38 17.02709 120.74192 32708 ft 473 kts 346°
2026-04-30 11:39 17.05951 120.73590 32935 ft 474 kts 346°
2026-04-30 11:39 17.09156 120.72994 33004 ft 474 kts 346°
2026-04-30 11:39 17.15643 120.71800 33013 ft 473 kts 346°
2026-04-30 11:40 17.22130 120.70606 32999 ft 473 kts 346°
2026-04-30 11:40 17.28612 120.69408 33000 ft 472 kts 346°
2026-04-30 11:41 17.35089 120.68211 32984 ft 473 kts 346°
2026-04-30 11:41 17.41570 120.67020 32986 ft 473 kts 346°
2026-04-30 11:42 17.48044 120.65834 32980 ft 472 kts 346°
2026-04-30 11:42 17.54519 120.64642 32980 ft 472 kts 346°
2026-04-30 11:43 17.60983 120.63448 32970 ft 472 kts 346°
2026-04-30 11:43 17.67451 120.62246 32950 ft 472 kts 346°
2026-04-30 11:44 17.73919 120.61047 32949 ft 472 kts 346°
2026-04-30 11:44 17.80384 120.59860 32949 ft 472 kts 346°
2026-04-30 11:45 17.86859 120.58664 32943 ft 472 kts 346°
2026-04-30 11:45 17.93281 120.57474 32942 ft 472 kts 346°
2026-04-30 11:46 17.99744 120.56282 32944 ft 471 kts 346°
2026-04-30 11:46 18.06213 120.55083 32944 ft 472 kts 346°
2026-04-30 11:47 18.12675 120.53878 32949 ft 472 kts 346°
2026-04-30 11:47 18.19213 120.53048 32943 ft 478 kts 357°
2026-04-30 11:48 18.25884 120.53540 32944 ft 481 kts
2026-04-30 11:48 18.32561 120.54077 32942 ft 481 kts
2026-04-30 11:49 18.39233 120.54613 32939 ft 481 kts
2026-04-30 11:49 18.45907 120.55152 32951 ft 481 kts
2026-04-30 11:50 18.52546 120.55683 32953 ft 481 kts
2026-04-30 11:50 18.59237 120.56218 32964 ft 481 kts
2026-04-30 11:51 18.65923 120.56758 32972 ft 481 kts
2026-04-30 11:51 18.72604 120.57296 32975 ft 482 kts
2026-04-30 11:52 18.79288 120.57832 32984 ft 482 kts
2026-04-30 11:52 18.85980 120.58371 32983 ft 482 kts
2026-04-30 11:53 18.92624 120.58899 32994 ft 482 kts
2026-04-30 11:53 18.99318 120.59438 32994 ft 482 kts
2026-04-30 11:54 19.06001 120.59982 32997 ft 482 kts
2026-04-30 11:54 19.12683 120.60516 32997 ft 482 kts 360°
2026-04-30 11:55 19.19378 120.61058 32994 ft 482 kts
2026-04-30 11:55 19.26073 120.61605 32994 ft 482 kts
2026-04-30 11:56 19.32716 120.62148 32997 ft 482 kts
2026-04-30 11:56 19.39411 120.62690 32997 ft 482 kts 360°
2026-04-30 11:57 19.46107 120.63225 32997 ft 482 kts
2026-04-30 11:57 19.52805 120.63768 32997 ft 482 kts
2026-04-30 11:58 19.59498 120.64310 33006 ft 482 kts 360°
2026-04-30 11:58 19.66140 120.64855 32999 ft 482 kts 360°
2026-04-30 11:59 19.72836 120.65398 32999 ft 482 kts 360°
2026-04-30 11:59 19.79527 120.65938 32999 ft 482 kts 360°
2026-04-30 12:00 19.86218 120.66491 33002 ft 482 kts 360°
2026-04-30 12:00 19.92920 120.67039 33005 ft 483 kts 360°
2026-04-30 12:01 19.99631 120.67584 33002 ft 483 kts 360°
2026-04-30 12:01 20.06288 120.68127 33002 ft 483 kts 360°
2026-04-30 12:02 20.12990 120.68674 33002 ft 483 kts 360°
2026-04-30 12:02 20.19687 120.69222 33000 ft 482 kts 359°
2026-04-30 12:03 20.29719 120.70047 33001 ft 482 kts 359°
2026-04-30 12:04 20.35282 120.70500 33005 ft 482 kts 359°
2026-04-30 12:04 20.41960 120.71052 33003 ft 481 kts 359°
2026-04-30 12:05 20.48647 120.71602 33001 ft 480 kts 359°
2026-04-30 12:05 20.55314 120.72152 33001 ft 480 kts 359°
2026-04-30 12:06 20.61979 120.72690 33007 ft 480 kts 359°
2026-04-30 12:06 20.68592 120.73232 33011 ft 480 kts 359°
2026-04-30 12:07 20.75250 120.73787 33007 ft 479 kts 360°
2026-04-30 12:07 20.81890 120.74337 33007 ft 478 kts 359°
2026-04-30 12:08 20.88532 120.74885 33009 ft 478 kts 359°
2026-04-30 12:08 20.95168 120.75430 33012 ft 478 kts 359°
2026-04-30 12:09 21.01757 120.76631 33013 ft 487 kts 14°
2026-04-30 12:09 21.08077 120.79308 33010 ft 489 kts 18°
2026-04-30 12:10 21.14391 120.82031 33012 ft 488 kts 18°
2026-04-30 12:10 21.20704 120.84740 33014 ft 488 kts 18°
2026-04-30 12:11 21.26974 120.87438 33039 ft 488 kts 18°
2026-04-30 12:11 21.33255 120.90150 33019 ft 486 kts 18°
2026-04-30 12:12 21.39524 120.92861 33019 ft 486 kts 18°
2026-04-30 12:12 21.45806 120.95574 33020 ft 486 kts 18°
2026-04-30 12:13 21.52105 120.98298 33021 ft 489 kts 18°
2026-04-30 12:13 21.58359 121.01014 33024 ft 487 kts 18°
2026-04-30 12:14 21.64649 121.03746 33025 ft 487 kts 18°
2026-04-30 12:14 21.70931 121.06477 33026 ft 487 kts 18°
2026-04-30 12:15 21.77218 121.09209 33029 ft 487 kts 18°
2026-04-30 12:15 21.83500 121.11931 33032 ft 486 kts 18°
2026-04-30 12:16 21.89763 121.14653 33032 ft 485 kts 18°
2026-04-30 12:16 21.96026 121.17386 33033 ft 485 kts 18°
2026-04-30 12:17 22.05380 121.21468 33030 ft 485 kts 18°
2026-04-30 12:17 22.11635 121.24200 33029 ft 485 kts 18°
2026-04-30 12:18 22.17910 121.26945 33029 ft 487 kts 18°
2026-04-30 12:18 22.24206 121.29692 33022 ft 488 kts 18°
2026-04-30 12:19 22.30493 121.32445 33028 ft 487 kts 18°
2026-04-30 12:19 22.36775 121.35200 33016 ft 486 kts 18°
2026-04-30 12:20 22.43040 121.37950 33014 ft 486 kts 18°
2026-04-30 12:20 22.49306 121.40697 33013 ft 486 kts 18°
2026-04-30 12:21 22.55533 121.43436 33021 ft 486 kts 18°
2026-04-30 12:21 22.61780 121.46191 33014 ft 485 kts 18°
2026-04-30 12:22 22.68054 121.48856 33011 ft 481 kts 13°
2026-04-30 12:22 22.74481 121.50884 33016 ft 481 kts 12°
2026-04-30 12:23 22.80922 121.52942 33038 ft 483 kts 13°
2026-04-30 12:23 22.87323 121.54999 33023 ft 482 kts 13°
2026-04-30 12:24 22.93758 121.57060 33027 ft 482 kts 12°
2026-04-30 12:24 23.00197 121.59111 33027 ft 482 kts 12°
2026-04-30 12:25 23.06639 121.61175 33053 ft 482 kts 13°
2026-04-30 12:25 23.13085 121.63248 33040 ft 482 kts 12°
2026-04-30 12:26 23.19523 121.65317 33045 ft 482 kts 13°
2026-04-30 12:26 23.25926 121.67379 33048 ft 482 kts 12°
2026-04-30 12:27 23.32371 121.69449 33063 ft 482 kts 12°
2026-04-30 12:27 23.38813 121.71530 33056 ft 483 kts 12°
2026-04-30 12:28 23.45253 121.73603 33065 ft 483 kts 12°
2026-04-30 12:28 23.51701 121.75689 33051 ft 483 kts 12°
2026-04-30 12:29 23.58142 121.77784 33074 ft 483 kts 12°
2026-04-30 12:29 23.64592 121.79879 33061 ft 483 kts 12°
2026-04-30 12:30 23.71041 121.81961 33065 ft 483 kts 12°
2026-04-30 12:30 23.77500 121.84043 33068 ft 483 kts 12°
2026-04-30 12:31 23.83902 121.86116 33083 ft 484 kts 12°
2026-04-30 12:31 23.90376 121.88219 33073 ft 485 kts 12°
2026-04-30 12:32 23.96851 121.90328 33084 ft 486 kts 12°
2026-04-30 12:32 24.03327 121.92441 33091 ft 486 kts 12°
2026-04-30 12:33 24.09817 121.94555 33100 ft 486 kts 12°
2026-04-30 12:33 24.16309 121.96669 33093 ft 487 kts 12°
2026-04-30 12:34 24.22813 121.98792 33095 ft 487 kts 12°
2026-04-30 12:34 24.29301 122.00912 33100 ft 487 kts 12°
2026-04-30 12:35 24.35792 122.02744 33105 ft 481 kts
2026-04-30 12:35 24.42450 122.03131 33103 ft 478 kts 356°
2026-04-30 12:36 24.49090 122.03382 33103 ft 478 kts 356°
2026-04-30 12:36 24.55747 122.03640 33106 ft 478 kts 356°
2026-04-30 12:37 24.62398 122.03903 33106 ft 478 kts 356°
2026-04-30 12:37 24.69048 122.04163 33111 ft 478 kts 356°
2026-04-30 12:38 24.75703 122.04421 33114 ft 478 kts 356°
2026-04-30 12:38 24.82309 122.04673 33114 ft 478 kts 356°
2026-04-30 12:39 24.88967 122.04931 33116 ft 479 kts 356°
2026-04-30 12:39 24.95641 122.05191 33117 ft 480 kts 356°
2026-04-30 12:40 25.02319 122.05455 33118 ft 480 kts 356°
2026-04-30 12:40 25.08964 122.05714 33117 ft 480 kts 356°
2026-04-30 12:41 25.15645 122.05973 33114 ft 481 kts 356°
2026-04-30 12:41 25.22349 122.06241 33122 ft 482 kts 356°
2026-04-30 12:42 25.29051 122.06507 33122 ft 482 kts 356°
2026-04-30 12:42 25.35754 122.06778 33122 ft 482 kts 356°
2026-04-30 12:43 25.42451 122.07046 33122 ft 480 kts 356°
2026-04-30 12:43 25.49120 122.07310 33125 ft 479 kts 356°
2026-04-30 12:44 25.55786 122.07570 33125 ft 480 kts 357°
2026-04-30 12:44 25.62370 122.08996 33125 ft 494 kts 16°
2026-04-30 12:45 25.68477 122.12626 33118 ft 502 kts 28°
2026-04-30 12:45 25.74387 122.16754 33122 ft 502 kts 27°
2026-04-30 12:46 25.80319 122.20869 33128 ft 502 kts 27°
2026-04-30 12:46 25.86238 122.24987 33123 ft 502 kts 27°
2026-04-30 12:47 25.92168 122.29136 33128 ft 503 kts 27°
2026-04-30 12:47 25.98057 122.33256 33128 ft 503 kts 27°
2026-04-30 12:48 26.03984 122.37406 33131 ft 504 kts 27°
2026-04-30 12:48 26.09920 122.41568 33144 ft 505 kts 27°
2026-04-30 12:49 26.15865 122.45751 33130 ft 506 kts 27°
2026-04-30 12:49 26.21819 122.49939 33129 ft 506 kts 27°
2026-04-30 12:50 26.26767 122.53418 33132 ft 506 kts 27°
2026-04-30 12:50 26.33721 122.58320 33128 ft 507 kts 26°
2026-04-30 12:51 26.38675 122.61819 33136 ft 507 kts 27°
2026-04-30 12:51 26.45608 122.66724 33134 ft 508 kts 27°
2026-04-30 12:52 26.50569 122.70230 33134 ft 508 kts 27°
2026-04-30 12:52 26.56552 122.74459 33126 ft 509 kts 26°
2026-04-30 12:53 26.62540 122.78697 33136 ft 510 kts 26°
2026-04-30 12:53 26.68525 122.82955 33135 ft 510 kts 26°
2026-04-30 12:54 26.74742 122.86606 33140 ft 497 kts 13°
2026-04-30 12:54 26.81256 122.89222 33123 ft 498 kts 12°
2026-04-30 12:55 26.87785 122.91848 33133 ft 499 kts 12°
2026-04-30 12:55 26.94319 122.94504 33133 ft 499 kts 12°
2026-04-30 12:56 27.00846 122.97162 33137 ft 497 kts 10°
2026-04-30 12:56 27.04164 122.98086 33135 ft 486 kts
2026-04-30 12:56 27.07491 122.98410 33136 ft 475 kts 351°
2026-04-30 12:57 27.10706 122.98184 33136 ft 464 kts 342°
2026-04-30 12:57 27.13833 122.97455 33136 ft 454 kts 334°
2026-04-30 12:57 27.19737 122.95108 33136 ft 449 kts 331°
2026-04-30 12:58 27.25602 122.92692 33161 ft 448 kts 330°
2026-04-30 12:58 27.31430 122.90284 33139 ft 446 kts 330°
2026-04-30 12:59 27.37013 122.87480 33143 ft 427 kts 316°
2026-04-30 12:59 27.39274 122.85408 33141 ft 413 kts 307°
2026-04-30 12:59 27.41104 122.82970 33143 ft 403 kts 297°
2026-04-30 13:00 27.43363 122.77409 33146 ft 389 kts 280°
2026-04-30 13:00 27.43848 122.71421 33149 ft 384 kts 268°
2026-04-30 13:01 27.43854 122.65400 33147 ft 385 kts 268°
2026-04-30 13:01 27.43866 122.59377 33148 ft 384 kts 269°
2026-04-30 13:02 27.43881 122.53370 33147 ft 384 kts 269°
2026-04-30 13:02 27.43892 122.47365 33149 ft 383 kts 269°
2026-04-30 13:03 27.44050 122.41368 33149 ft 385 kts 276°
2026-04-30 13:03 27.45079 122.35428 33149 ft 386 kts 278°
2026-04-30 13:04 27.46118 122.29502 33151 ft 385 kts 278°
2026-04-30 13:04 27.47157 122.23589 33152 ft 385 kts 278°
2026-04-30 13:05 27.48186 122.17672 33151 ft 385 kts 278°
2026-04-30 13:06 27.49726 122.08838 33153 ft 385 kts 278°
2026-04-30 13:06 27.50759 122.02922 33149 ft 383 kts 278°
2026-04-30 13:07 27.51776 121.97029 33151 ft 383 kts 278°
2026-04-30 13:07 27.52788 121.91140 33150 ft 383 kts 278°
2026-04-30 13:08 27.53800 121.85244 33156 ft 383 kts 278°
2026-04-30 13:08 27.54803 121.79388 33168 ft 383 kts 278°
2026-04-30 13:09 27.55805 121.73506 33252 ft 381 kts 278°
2026-04-30 13:09 27.56803 121.67629 33254 ft 381 kts 278°
2026-04-30 13:10 27.57809 121.61757 33256 ft 381 kts 278°
2026-04-30 13:10 27.58822 121.55852 33257 ft 386 kts 278°
2026-04-30 13:11 27.59869 121.49952 33259 ft 386 kts 279°
2026-04-30 13:11 27.60932 121.44015 33252 ft 385 kts 279°
2026-04-30 13:12 27.61988 121.38091 33248 ft 385 kts 279°
2026-04-30 13:12 27.63030 121.32168 33248 ft 385 kts 279°
2026-04-30 13:13 27.64587 121.23275 33258 ft 385 kts 279°
2026-04-30 13:14 27.66135 121.14414 33240 ft 383 kts 279°
2026-04-30 13:14 27.67662 121.05597 33243 ft 383 kts 279°
2026-04-30 13:15 27.69204 120.96732 33243 ft 383 kts 279°
2026-04-30 13:16 27.70223 120.90834 33247 ft 383 kts 279°
2026-04-30 13:16 27.71241 120.84935 33247 ft 383 kts 279°
2026-04-30 13:17 27.72755 120.76091 33247 ft 382 kts 279°
2026-04-30 13:17 27.74021 120.70263 33248 ft 387 kts 291°
2026-04-30 13:18 27.75468 120.67675 33248 ft 396 kts 304°
2026-04-30 13:18 27.80199 120.64195 33248 ft 430 kts 335°
2026-04-30 13:18 27.83238 120.63749 33270 ft 454 kts 352°
2026-04-30 13:19 27.89626 120.64302 33244 ft 462 kts 354°
2026-04-30 13:19 27.95994 120.64940 33244 ft 462 kts 354°
2026-04-30 13:20 28.02406 120.65558 33249 ft 462 kts 354°
2026-04-30 13:20 28.08821 120.66166 33272 ft 463 kts 354°
2026-04-30 13:21 28.15238 120.66801 33248 ft 463 kts 354°
2026-04-30 13:22 28.24871 120.67758 33256 ft 463 kts 354°
2026-04-30 13:22 28.34494 120.68687 33266 ft 462 kts 353°
2026-04-30 13:23 28.44034 120.69638 33254 ft 460 kts 353°
2026-04-30 13:24 28.56806 120.70922 33218 ft 459 kts 353°
2026-04-30 13:25 28.63174 120.71559 32444 ft 459 kts 353°
2026-04-30 13:25 28.69559 120.73077 31711 ft 484 kts
2026-04-30 13:26 28.78565 120.78975 30646 ft 505 kts 21°
2026-04-30 13:26 28.84495 120.83261 29955 ft 505 kts 21°
2026-04-30 13:27 28.90434 120.87554 29143 ft 505 kts 21°
2026-04-30 13:28 28.99322 120.94006 27962 ft 505 kts 22°
2026-04-30 13:28 29.05265 120.98320 27255 ft 506 kts 21°
2026-04-30 13:28 29.08233 121.00487 26890 ft 506 kts 21°
2026-04-30 13:29 29.14126 121.04803 26163 ft 504 kts 21°
2026-04-30 13:29 29.20327 121.08021 25455 ft 480 kts
2026-04-30 13:30 29.29873 121.11472 24471 ft 477 kts
2026-04-30 13:31 29.36153 121.13768 23794 ft 471 kts
2026-04-30 13:31 29.45412 121.17175 22666 ft 464 kts
2026-04-30 13:32 29.51527 121.19420 21884 ft 460 kts
2026-04-30 13:32 29.57593 121.21646 21134 ft 454 kts
2026-04-30 13:33 29.63591 121.23850 20830 ft 452 kts
2026-04-30 13:33 29.69616 121.26056 20857 ft 455 kts
2026-04-30 13:34 29.72635 121.27163 20832 ft 456 kts
2026-04-30 13:34 29.81698 121.30504 20838 ft 455 kts
2026-04-30 13:35 29.84673 121.31606 20837 ft 455 kts
2026-04-30 13:35 29.90601 121.34071 19989 ft 455 kts 17°
2026-04-30 13:36 29.96171 121.37536 18965 ft 454 kts 21°
2026-04-30 13:36 29.98947 121.39272 18803 ft 453 kts 20°
2026-04-30 13:36 30.04483 121.42737 18828 ft 452 kts 20°
2026-04-30 13:37 30.07246 121.44471 18832 ft 453 kts 20°
2026-04-30 13:37 30.12782 121.47941 18843 ft 452 kts 20°
2026-04-30 13:38 30.18300 121.51396 18822 ft 450 kts 20°
2026-04-30 13:38 30.20126 121.52542 18815 ft 451 kts 20°
2026-04-30 13:38 30.26552 121.56586 17971 ft 445 kts 21°
2026-04-30 13:39 30.31905 121.60039 16650 ft 434 kts 22°
2026-04-30 13:39 30.36228 121.62873 15667 ft 424 kts 22°
2026-04-30 13:40 30.38740 121.64553 15431 ft 407 kts 23°
2026-04-30 13:40 30.41881 121.66753 14554 ft 394 kts 24°
2026-04-30 13:40 30.43456 121.67872 14021 ft 391 kts 24°
2026-04-30 13:40 30.45754 121.69511 13257 ft 385 kts 24°
2026-04-30 13:41 30.48017 121.71124 12454 ft 379 kts 25°
2026-04-30 13:41 30.50250 121.72710 11665 ft 374 kts 25°
2026-04-30 13:41 30.52452 121.74265 10901 ft 368 kts 25°
2026-04-30 13:41 30.54635 121.75803 10238 ft 366 kts 25°
2026-04-30 13:42 30.56843 121.77259 9970 ft 362 kts 18°
2026-04-30 13:42 30.59141 121.78069 9773 ft 337 kts
2026-04-30 13:42 30.63403 121.79241 9483 ft 294 kts
2026-04-30 13:43 30.65335 121.79774 9302 ft 278 kts
2026-04-30 13:43 30.67194 121.80279 8897 ft 272 kts
2026-04-30 13:43 30.69025 121.80768 8449 ft 268 kts
2026-04-30 13:43 30.70839 121.81254 7966 ft 266 kts
2026-04-30 13:44 30.72638 121.81737 7489 ft 264 kts
2026-04-30 13:44 30.74375 121.82207 7040 ft 261 kts
2026-04-30 13:44 30.76132 121.82685 6855 ft 259 kts 10°
2026-04-30 13:44 30.77889 121.83161 6849 ft 260 kts 10°
2026-04-30 13:45 30.81421 121.84112 6842 ft 261 kts 10°
2026-04-30 13:45 30.83188 121.84591 6842 ft 261 kts 10°
2026-04-30 13:45 30.84934 121.85069 6843 ft 261 kts 10°
2026-04-30 13:46 30.86699 121.85554 6859 ft 261 kts 10°
2026-04-30 13:46 30.88469 121.86039 6854 ft 261 kts 10°
2026-04-30 13:46 30.90234 121.86523 6854 ft 260 kts
2026-04-30 13:46 30.92019 121.86723 6853 ft 257 kts 353°
2026-04-30 13:47 30.93746 121.86277 6851 ft 255 kts 337°
2026-04-30 13:47 30.95267 121.85238 6855 ft 254 kts 321°
2026-04-30 13:47 30.96609 121.83888 6855 ft 255 kts 320°
2026-04-30 13:47 30.97949 121.82537 6858 ft 255 kts 320°
2026-04-30 13:48 30.99293 121.81187 6862 ft 255 kts 320°
2026-04-30 13:48 31.00639 121.79837 6857 ft 255 kts 320°
2026-04-30 13:48 31.01987 121.78485 6861 ft 255 kts 320°
2026-04-30 13:48 31.03334 121.77133 6861 ft 255 kts 320°
2026-04-30 13:49 31.04669 121.75770 6862 ft 255 kts 320°
2026-04-30 13:49 31.06000 121.74396 6864 ft 255 kts 319°
2026-04-30 13:49 31.07326 121.73025 6865 ft 255 kts 320°
2026-04-30 13:49 31.08657 121.71649 6862 ft 255 kts 320°
2026-04-30 13:50 31.09987 121.70273 6865 ft 255 kts 320°
2026-04-30 13:50 31.12655 121.67602 6633 ft 252 kts 327°
2026-04-30 13:50 31.14221 121.66708 6188 ft 251 kts 342°
2026-04-30 13:51 31.15894 121.66117 5738 ft 252 kts 342°
2026-04-30 13:51 31.17571 121.65515 5292 ft 252 kts 342°
2026-04-30 13:51 31.19244 121.64907 4980 ft 251 kts 342°
2026-04-30 13:51 31.20927 121.64293 4955 ft 254 kts 342°
2026-04-30 13:52 31.22618 121.63677 4957 ft 254 kts 342°
2026-04-30 13:52 31.24255 121.63082 4951 ft 237 kts 342°
2026-04-30 13:52 31.25772 121.62534 4950 ft 218 kts 342°
2026-04-30 13:52 31.27200 121.62002 4952 ft 214 kts 341°
2026-04-30 13:53 31.28613 121.61466 4740 ft 212 kts 340°
2026-04-30 13:53 31.30002 121.60934 4415 ft 213 kts 340°
2026-04-30 13:53 31.31416 121.60390 4138 ft 214 kts 340°
2026-04-30 13:53 31.32828 121.59850 3833 ft 214 kts 340°
2026-04-30 13:54 31.34248 121.59309 3553 ft 215 kts 340°
2026-04-30 13:54 31.35667 121.58770 3272 ft 215 kts 340°
2026-04-30 13:54 31.37083 121.58231 3074 ft 215 kts 340°
2026-04-30 13:54 31.38562 121.58024 3034 ft 218 kts
2026-04-30 13:55 31.39880 121.58765 3031 ft 207 kts 42°
2026-04-30 13:55 31.40613 121.60160 3038 ft 202 kts 74°
2026-04-30 13:55 31.40919 121.61754 3045 ft 199 kts 77°
2026-04-30 13:55 31.41213 121.63338 3040 ft 198 kts 77°
2026-04-30 13:56 31.41504 121.64914 3041 ft 198 kts 77°
2026-04-30 13:56 31.41739 121.66501 3035 ft 198 kts 92°
2026-04-30 13:56 31.41330 121.67989 3048 ft 197 kts 129°
2026-04-30 13:56 31.40266 121.68944 3052 ft 194 kts 163°
2026-04-30 13:57 31.38988 121.69427 3049 ft 193 kts 165°
2026-04-30 13:57 31.37712 121.69909 3047 ft 192 kts 165°
2026-04-30 13:57 31.36437 121.70393 3048 ft 192 kts 165°
2026-04-30 13:57 31.35179 121.70871 3049 ft 192 kts 165°
2026-04-30 13:58 31.33903 121.71355 3052 ft 192 kts 165°
2026-04-30 13:58 31.31356 121.72322 3055 ft 192 kts 165°
2026-04-30 13:58 31.30078 121.72806 2974 ft 193 kts 165°
2026-04-30 13:59 31.28802 121.73290 2774 ft 193 kts 165°
2026-04-30 13:59 31.27521 121.73776 2526 ft 194 kts 165°
2026-04-30 13:59 31.26231 121.74264 2268 ft 196 kts 165°
2026-04-30 13:59 31.24940 121.74753 2008 ft 198 kts 164°
2026-04-30 14:00 31.23634 121.75248 1743 ft 197 kts 164°
2026-04-30 14:00 31.21243 121.76155 1245 ft 160 kts 164°
2026-04-30 14:00 31.20239 121.76535 1027 ft 145 kts 165°
2026-04-30 14:01 31.19304 121.76888 835 ft 139 kts 164°
2026-04-30 14:01 31.18394 121.77231 649 ft 136 kts 163°
2026-04-30 14:01 31.17501 121.77577 478 ft 136 kts 163°
2026-04-30 14:01 31.16608 121.77914 285 ft 135 kts 163°
2026-04-30 14:02 31.15715 121.78251 136 ft 135 kts 162°
2026-04-30 14:02 31.14843 121.78588 27 ft 123 kts 161°
2026-04-30 14:02 31.14171 121.78834 23 ft 77 kts 161°
2026-04-30 14:02 31.13806 121.78976 22 ft 43 kts 161°
2026-04-30 14:03 31.13563 121.79073 25 ft 15 kts 137°
2026-04-30 14:03 31.13489 121.79172 24 ft 17 kts 132°
2026-04-30 14:03 31.13403 121.79277 24 ft 18 kts 135°
2026-04-30 14:03 31.13321 121.79392 23 ft 18 kts 96°
2026-04-30 14:04 31.13330 121.79459 23 ft 8 kts 73°
2026-04-30 14:04 31.13347 121.79525 23 ft 10 kts 73°
2026-04-30 14:04 31.13373 121.79619 22 ft 16 kts 72°
2026-04-30 14:04 31.13401 121.79717 22 ft 9 kts 71°
2026-04-30 14:05 31.13420 121.79784 22 ft 2 kts 72°
2026-04-30 14:05 31.13422 121.79793 22 ft 1 kts 72°
2026-04-30 14:05 31.13427 121.79811 24 ft 7 kts 72°
2026-04-30 14:05 31.13458 121.79921 23 ft 21 kts 72°
2026-04-30 14:06 31.13497 121.80059 25 ft 12 kts 72°
2026-04-30 14:06 31.13522 121.80179 25 ft 6 kts 73°
2026-04-30 14:07 31.13534 121.80226 23 ft 2 kts 72°
2026-04-30 14:07 31.13537 121.80238 25 ft 1 kts 72°
2026-04-30 14:07 31.13539 121.80245 24 ft 1 kts 72°